TVF16VB LFBO-LFPO

Flight info

Callsign TVF16VB
Flight time 0h 57m
Altitude 28000
Route FISTO DCT PERIG DCT DIBAG DCT TUDRA DCT BEVOL UT158 AMB
Aircraft B738/M-SDE2E3FGHIRWXY/LB1

Departure

Time 2026-04-30 18:45
Airport Toulouse-Blagnac Airport (LFBO)

Arrival

Time 2026-04-30 19:42
Airport Paris-Orly Airport (LFPO)
Time Latitude Longitude Altitude Speed Heading
2026-04-30 18:16 43.62928 1.37341 493 ft 0 kts 84°
2026-04-30 18:34 43.62926 1.37321 484 ft 4 kts 84°
2026-04-30 18:35 43.62924 1.37292 490 ft 4 kts 82°
2026-04-30 18:35 43.62920 1.37255 485 ft 4 kts 89°
2026-04-30 18:35 43.62926 1.37226 487 ft 3 kts 142°
2026-04-30 18:36 43.62938 1.37212 487 ft 0 kts 143°
2026-04-30 18:38 43.62931 1.37216 486 ft 3 kts 163°
2026-04-30 18:38 43.62906 1.37198 463 ft 6 kts 226°
2026-04-30 18:38 43.62874 1.37142 493 ft 9 kts 231°
2026-04-30 18:39 43.62833 1.37063 491 ft 11 kts 250°
2026-04-30 18:39 43.62869 1.36970 490 ft 13 kts 322°
2026-04-30 18:39 43.62946 1.36892 491 ft 15 kts 323°
2026-04-30 18:39 43.63041 1.36797 490 ft 19 kts 323°
2026-04-30 18:40 43.63156 1.36678 488 ft 22 kts 322°
2026-04-30 18:40 43.63291 1.36537 490 ft 26 kts 323°
2026-04-30 18:40 43.63432 1.36393 493 ft 24 kts 323°
2026-04-30 18:40 43.63563 1.36256 487 ft 23 kts 322°
2026-04-30 18:41 43.63686 1.36127 493 ft 22 kts 323°
2026-04-30 18:41 43.63802 1.36003 493 ft 17 kts 314°
2026-04-30 18:41 43.63785 1.35874 482 ft 14 kts 231°
2026-04-30 18:41 43.63713 1.35798 487 ft 13 kts 177°
2026-04-30 18:42 43.63637 1.35866 486 ft 14 kts 143°
2026-04-30 18:42 43.62891 1.36640 490 ft 131 kts 143°
2026-04-30 18:42 43.62053 1.37527 749 ft 162 kts 140°
2026-04-30 18:45 43.49194 1.46644 5857 ft 273 kts 202°
2026-04-30 18:45 43.47575 1.45260 6567 ft 274 kts 223°
2026-04-30 18:45 43.46417 1.43222 6999 ft 274 kts 244°
2026-04-30 18:46 43.45910 1.40685 7593 ft 275 kts 266°
2026-04-30 18:46 43.46117 1.38102 8328 ft 276 kts 287°
2026-04-30 18:46 43.47002 1.35749 9092 ft 280 kts 308°
2026-04-30 18:46 43.48489 1.33994 9832 ft 286 kts 331°
2026-04-30 18:47 43.50399 1.33137 10449 ft 297 kts 349°
2026-04-30 18:47 43.52530 1.32801 10631 ft 320 kts 354°
2026-04-30 18:47 43.54834 1.32554 10841 ft 341 kts 354°
2026-04-30 18:47 43.57233 1.32306 11304 ft 350 kts 354°
2026-04-30 18:48 43.59668 1.32036 12021 ft 352 kts 354°
2026-04-30 18:48 43.62113 1.31743 12714 ft 355 kts 353°
2026-04-30 18:48 43.64572 1.31433 13338 ft 361 kts 353°
2026-04-30 18:48 43.67087 1.31110 14009 ft 365 kts 353°
2026-04-30 18:49 43.69632 1.30796 14634 ft 369 kts 354°
2026-04-30 18:49 43.72212 1.30516 15284 ft 373 kts 354°
2026-04-30 18:49 43.74809 1.30248 15922 ft 376 kts 354°
2026-04-30 18:49 43.77439 1.29980 16569 ft 380 kts 354°
2026-04-30 18:50 43.80094 1.29708 17205 ft 384 kts 354°
2026-04-30 18:50 43.82746 1.29434 17839 ft 388 kts 354°
2026-04-30 18:50 43.85460 1.29151 18442 ft 393 kts 354°
2026-04-30 18:50 43.88192 1.28864 18982 ft 396 kts 353°
2026-04-30 18:51 43.90960 1.28573 19545 ft 399 kts 353°
2026-04-30 18:51 43.93755 1.28278 20098 ft 402 kts 353°
2026-04-30 18:51 43.96515 1.27987 20630 ft 405 kts 353°
2026-04-30 18:51 43.99338 1.27688 21149 ft 408 kts 353°
2026-04-30 18:52 44.02191 1.27385 21688 ft 411 kts 352°
2026-04-30 18:52 44.05064 1.27080 22142 ft 417 kts 353°
2026-04-30 18:52 44.07968 1.26771 22637 ft 420 kts 352°
2026-04-30 18:52 44.10897 1.26461 23167 ft 422 kts 352°
2026-04-30 18:53 44.13805 1.26152 23671 ft 425 kts 352°
2026-04-30 18:53 44.16771 1.25837 24079 ft 428 kts 352°
2026-04-30 18:53 44.19761 1.25518 24514 ft 430 kts 352°
2026-04-30 18:53 44.22758 1.25199 24956 ft 432 kts 352°
2026-04-30 18:54 44.25736 1.24880 25365 ft 434 kts 352°
2026-04-30 18:54 44.28749 1.24560 25891 ft 432 kts 352°
2026-04-30 18:54 44.31737 1.24242 26495 ft 429 kts 352°
2026-04-30 18:54 44.34721 1.23924 27074 ft 427 kts 351°
2026-04-30 18:55 44.37677 1.23606 27596 ft 426 kts 351°
2026-04-30 18:55 44.43626 1.22965 28133 ft 433 kts 351°
2026-04-30 18:55 44.46630 1.22590 28140 ft 432 kts 347°
2026-04-30 18:56 44.52340 1.20585 28147 ft 421 kts 339°
2026-04-30 18:56 44.55150 1.19394 28147 ft 422 kts 338°
2026-04-30 18:57 44.63640 1.15880 28144 ft 424 kts 340°
2026-04-30 18:57 44.69323 1.13631 28151 ft 427 kts 341°
2026-04-30 18:58 44.77897 1.10270 28141 ft 428 kts 341°
2026-04-30 18:59 44.86517 1.06879 28140 ft 427 kts 341°
2026-04-30 19:00 44.97934 1.02367 28140 ft 426 kts 340°
2026-04-30 19:01 45.09359 0.97833 28150 ft 426 kts 342°
2026-04-30 19:02 45.18033 0.95050 28150 ft 428 kts 347°
2026-04-30 19:03 45.29774 0.92066 28157 ft 430 kts 349°
2026-04-30 19:04 45.41568 0.88913 28150 ft 431 kts 350°
2026-04-30 19:05 45.53328 0.85741 28153 ft 431 kts 350°
2026-04-30 19:06 45.65152 0.82540 28153 ft 431 kts 351°
2026-04-30 19:06 45.73956 0.80148 28157 ft 430 kts 351°
2026-04-30 19:07 45.82802 0.78557 28167 ft 424 kts
2026-04-30 19:08 45.94540 0.78625 28142 ft 421 kts
2026-04-30 19:09 46.03317 0.78577 28141 ft 419 kts
2026-04-30 19:09 46.09135 0.78522 28141 ft 419 kts
2026-04-30 19:10 46.20843 0.78411 28136 ft 421 kts
2026-04-30 19:11 46.29610 0.78329 28136 ft 422 kts
2026-04-30 19:12 46.35501 0.78274 28132 ft 422 kts
2026-04-30 19:12 46.41347 0.78219 28132 ft 422 kts
2026-04-30 19:13 46.53116 0.78131 28125 ft 422 kts
2026-04-30 19:14 46.58847 0.79490 28121 ft 417 kts 15°
2026-04-30 19:14 46.64504 0.81369 28124 ft 417 kts 15°
2026-04-30 19:15 46.70173 0.83219 28129 ft 417 kts 15°
2026-04-30 19:15 46.77736 0.85627 28131 ft 418 kts 14°
2026-04-30 19:16 46.84345 0.87723 28131 ft 418 kts 14°
2026-04-30 19:17 46.91926 0.90136 28126 ft 418 kts 14°
2026-04-30 19:17 47.00422 0.92850 28126 ft 417 kts 14°
2026-04-30 19:18 47.08922 0.95548 28118 ft 411 kts 14°
2026-04-30 19:19 47.14371 0.97272 28114 ft 392 kts 14°
2026-04-30 19:19 47.16997 0.98105 28108 ft 379 kts 14°
2026-04-30 19:19 47.21972 0.99688 28107 ft 351 kts 14°
2026-04-30 19:20 47.24299 1.00430 28110 ft 338 kts 14°
2026-04-30 19:20 47.26559 1.01153 28103 ft 326 kts 14°
2026-04-30 19:20 47.30838 1.02522 28110 ft 306 kts 15°
2026-04-30 19:21 47.32920 1.03193 28132 ft 313 kts 15°
2026-04-30 19:21 47.37213 1.04573 27544 ft 317 kts 15°
2026-04-30 19:22 47.41566 1.05971 26400 ft 330 kts 14°
2026-04-30 19:22 47.48757 1.09375 23570 ft 381 kts 22°
2026-04-30 19:23 47.56138 1.13225 22437 ft 369 kts 21°
2026-04-30 19:24 47.60960 1.15659 21578 ft 366 kts 21°
2026-04-30 19:24 47.63367 1.16877 21162 ft 364 kts 21°
2026-04-30 19:24 47.68147 1.19304 20365 ft 360 kts 21°
2026-04-30 19:25 47.75175 1.22891 19231 ft 356 kts 21°
2026-04-30 19:26 47.79836 1.25275 18484 ft 352 kts 22°
2026-04-30 19:26 47.84444 1.27638 17727 ft 347 kts 22°
2026-04-30 19:26 47.86720 1.28806 17364 ft 344 kts 22°
2026-04-30 19:27 47.91240 1.31130 16575 ft 341 kts 22°
2026-04-30 19:27 47.95701 1.33429 15837 ft 337 kts 21°
2026-04-30 19:28 47.97895 1.34560 15494 ft 336 kts 21°
2026-04-30 19:28 48.02289 1.36829 14798 ft 332 kts 21°
2026-04-30 19:29 48.06588 1.39220 14098 ft 326 kts 32°
2026-04-30 19:29 48.08479 1.41056 13746 ft 323 kts 38°
2026-04-30 19:30 48.13869 1.46711 12460 ft 306 kts 37°
2026-04-30 19:30 48.17315 1.50209 11523 ft 298 kts 37°
2026-04-30 19:31 48.20724 1.53659 10751 ft 292 kts 37°
2026-04-30 19:31 48.22418 1.55378 10453 ft 294 kts 36°
2026-04-30 19:31 48.25791 1.58801 9893 ft 289 kts 36°
2026-04-30 19:32 48.27429 1.60466 9637 ft 286 kts 36°
2026-04-30 19:32 48.29065 1.62131 9394 ft 282 kts 36°
2026-04-30 19:32 48.30680 1.63775 9163 ft 278 kts 36°
2026-04-30 19:32 48.32282 1.65409 8943 ft 278 kts 36°
2026-04-30 19:33 48.33882 1.67041 8726 ft 278 kts 36°
2026-04-30 19:33 48.35482 1.68675 8492 ft 277 kts 36°
2026-04-30 19:33 48.37059 1.70286 8286 ft 278 kts 36°
2026-04-30 19:33 48.38663 1.71925 8069 ft 278 kts 36°
2026-04-30 19:34 48.40238 1.73616 7841 ft 275 kts 40°
2026-04-30 19:34 48.41722 1.75452 7625 ft 276 kts 41°
2026-04-30 19:34 48.44655 1.79193 7191 ft 278 kts 41°
2026-04-30 19:35 48.46134 1.81068 6960 ft 278 kts 41°
2026-04-30 19:35 48.47617 1.82938 6741 ft 277 kts 41°
2026-04-30 19:35 48.49094 1.84795 6521 ft 277 kts 41°
2026-04-30 19:35 48.50579 1.86658 6285 ft 277 kts 41°
2026-04-30 19:36 48.52056 1.88510 6056 ft 275 kts 40°
2026-04-30 19:36 48.53518 1.90342 5839 ft 272 kts 40°
2026-04-30 19:36 48.56410 1.93967 5286 ft 271 kts 41°
2026-04-30 19:37 48.57854 1.95780 5064 ft 268 kts 40°
2026-04-30 19:37 48.59281 1.97571 4835 ft 265 kts 41°
2026-04-30 19:37 48.60594 1.99448 4590 ft 260 kts 55°
2026-04-30 19:37 48.61545 2.01722 4405 ft 253 kts 64°
2026-04-30 19:38 48.62344 2.04054 4293 ft 245 kts 66°
2026-04-30 19:38 48.63123 2.06346 4017 ft 245 kts 65°
2026-04-30 19:38 48.63913 2.08624 3733 ft 242 kts 66°
2026-04-30 19:38 48.64683 2.10825 3410 ft 238 kts 66°
2026-04-30 19:39 48.65449 2.13013 3094 ft 233 kts 66°
2026-04-30 19:39 48.66193 2.15137 2788 ft 222 kts 66°
2026-04-30 19:39 48.66892 2.17127 2496 ft 206 kts 67°
2026-04-30 19:39 48.67538 2.18970 2213 ft 190 kts 68°
2026-04-30 19:40 48.68131 2.20665 1989 ft 175 kts 66°
2026-04-30 19:40 48.68678 2.22220 1752 ft 160 kts 67°
2026-04-30 19:40 48.69174 2.23634 1579 ft 146 kts 69°
2026-04-30 19:40 48.69635 2.24954 1363 ft 140 kts 68°
2026-04-30 19:41 48.70098 2.26273 1189 ft 143 kts 65°
2026-04-30 19:41 48.70563 2.27593 1000 ft 137 kts 62°
2026-04-30 19:41 48.71007 2.28871 827 ft 137 kts 63°
2026-04-30 19:41 48.71450 2.30150 619 ft 143 kts 60°
2026-04-30 19:42 48.71930 2.31470 429 ft 140 kts 66°
2026-04-30 19:42 48.72376 2.32759 290 ft 133 kts 64°
2026-04-30 19:42 48.72721 2.33735 291 ft 74 kts 62°
2026-04-30 19:42 48.72912 2.34283 288 ft 49 kts 62°
2026-04-30 19:43 48.73004 2.34673 283 ft 37 kts 81°
2026-04-30 19:43 48.73038 2.35039 288 ft 34 kts 83°
2026-04-30 19:43 48.73001 2.35261 286 ft 14 kts 135°
2026-04-30 19:44 48.72910 2.35453 289 ft 11 kts 69°
2026-04-30 19:44 48.72884 2.35551 284 ft 11 kts 155°
2026-04-30 19:44 48.72813 2.35576 284 ft 10 kts 164°
2026-04-30 19:44 48.72788 2.35640 285 ft 8 kts 56°
2026-04-30 19:45 48.72817 2.35682 288 ft 2 kts 41°
2026-04-30 19:45 48.72822 2.35688 284 ft 0 kts 41°